Flag for Germany Weather past 2 weeks in Weiden in der Oberpfalz, Bavaria, Germany

Now
73 °F

Sunny.


Feels Like: 77 °F
Forecast: 50 / 77 °F
Wind: 5 mph from Northeast

Location: Weiden

Current Time: Jul 24, 2014 at 12:56:14 PM

Latest Report: Jul 24, 2014 at 12:00 PM


Visibility: 17 mi

Pressure: 29.88 "Hg

Humidity: 44%

Dew point: 50 °F

Location of Weiden in der OberpfalzLocation

Historic Weather in Weiden in der Oberpfalz — Graph

°F

Weiden in der Oberpfalz temperature yesterday

Maximum temperature yesterday: 78 °F (at 4:00 PM)
Minimum temperature yesterday: 59 °F (at 6:00 AM)
Average temperature yesterday: 68 °F

Past Weeks' High & Low Weather Summary

 TemperatureHumidityPressure
High89 °F (Jul 20, 3:00 PM)100% (Jul 15, 6:00 AM)30.19 "Hg (Jul 15, 6:00 AM)
Low51 °F (Jul 11, 6:00 AM)26% (Jul 18, 7:00 PM)29.73 "Hg (Jul 9, 3:00 PM)
Average66 °F72%29.94 "Hg
* Reported Jul 9 3:00 PM — Jul 24 11:00 AM, Weiden in der Oberpfalz, Weather by CustomWeather, © 2014

Note: Actual official high and low records may vary slightly from our data, if they occured in-between our weather recording intervals... More about our weather records

Advertising

Weiden in der Oberpfalz weather history for previous 24 hours

 ConditionsComfort  
Time TempWeatherWind HumidityBarometerVisibility
11:00 AM
Jul 24
73 °FSunny.6 mph49%29.89 "Hg14 mi
10:00 AM69 °FSunny.7 mph53%29.90 "Hg19 mi
9:00 AM67 °FSunny.6 mph62%29.92 "Hg17 mi
8:00 AM61 °FPartly sunny.1 mph71%29.94 "Hg14 mi
7:00 AM58 °FPartly sunny.2 mph78%29.94 "Hg15 mi
6:00 AM54 °FSunny.1 mph86%29.96 "Hg11 mi
5:00 AM57 °FClear.1 mph78%29.94 "Hg15 mi
4:00 AM56 °FClear.1 mph84%29.96 "Hg11 mi
3:00 AM56 °FClear.2 mph85%29.96 "Hg11 mi
2:00 AM58 °FClear.1 mph81%29.96 "Hg12 mi
1:00 AM60 °FClear.1 mph78%29.97 "Hg13 mi
12:00 AM62 °FPassing clouds.1 mph70%29.96 "Hg16 mi
11:00 PM
Jul 23
64 °FPassing clouds.1 mph65%29.97 "Hg17 mi
10:00 PM66 °FClear.3 mph63%29.96 "Hg19 mi
9:00 PM70 °FSunny.3 mph54%29.94 "Hg19 mi
8:00 PM74 °FSunny.5 mph45%29.93 "Hg22 mi
7:00 PM77 °FPassing clouds.2 mph43%29.92 "Hg17 mi
6:00 PM77 °FPassing clouds.3 mph46%29.92 "Hg15 mi
5:00 PM73 °FLight rain. Partly sunny.7 mph51%29.94 "Hg17 mi
4:00 PM78 °FScattered clouds.2 mph39%29.93 "Hg13 mi
3:00 PM75 °FLight rain. Scattered clouds.7 mph42%29.96 "Hg19 mi
Weather by CustomWeather, © 2014

See weather overviewHow to use our weather pages